Hourly Data Report for October 20, 2016

All times are specified in Local Standard Time (LST). Add 1 hour to adjust for Daylight Saving Time where and when it is observed.

PANGNIRTUNG
NUNAVUT

66°08'36.300" N
65°42'40.500" W
22.60 m
2403049
71826
WXP

Download Data

Hourly Data (October 2016)
Hourly Data Report for October 20, 2016
Temp Definition
°C
Dew Point Temp Definition
°C
Rel Hum Definition
%
Wind Dir Definition
10's deg

Wind Spd Definition
km/h
Visibility Definition
km
Stn Press Definition
kPa
Hmdx Definition


Wind Chill Definition


Weather Definition


TIME
00:00 -10.7 -15.8 66 23 3   101.12   -13 LegendNANA
01:00 -11.3 -16.5 66 20 2   101.14   -13 LegendNANA
02:00 -11.0 -16.0 66 24 2   101.17   -12 LegendNANA
03:00 -10.0 -15.5 64 16 5   101.16   -13 LegendNANA
04:00 -10.1 -15.8 63 12 5   101.17   -13 LegendNANA
05:00 -8.8 -14.2 65 29 13   101.17   -15 LegendNANA
06:00 -8.9 -12.1 78 31 13   101.15   -15 LegendNANA
07:00 -8.2 -11.0 80 13 9   101.10   -13 LegendNANA
08:00 -8.2 -10.0 86 22 2   101.04   -9 LegendNANA
09:00 -8.4 -9.8 89 15 2   100.98   -9 LegendNANA
10:00 -7.3 -9.2 86 24 3   100.92   -9 LegendNANA
11:00 -6.8 -8.8 86   0   100.85     LegendNANA
12:00 -7.0 -8.5 89 6 4   100.79   -9 LegendNANA
13:00 -6.8 -7.9 92 8 7   100.73   -10 LegendNANA
14:00 -6.8 -8.0 92 7 9   100.67   -11 LegendNANA
15:00 -7.0 -7.7 95 10 10   100.60   -12 LegendNANA
16:00 -6.7 -7.4 95 10 10   100.53   -11 LegendNANA
17:00 -6.1 -6.8 95 11 7   100.45   -9 LegendNANA
18:00 -5.8 -6.5 95 9 8   100.38   -10 LegendNANA
19:00 -5.6 -6.1 96 11 6   100.32   -8 LegendNANA
20:00 -5.3 -5.8 97 27 4   100.34   -7 LegendNANA
21:00 -2.5 -5.1 82 25 21   100.35   -9 LegendNANA
22:00 -2.7 -7.2 71 30 15   100.35   -8 LegendNANA
23:00 -3.4 -6.7 78 27 14   100.35   -8 LegendNANA

Notes on Data Quality.

Legend

  • E = Estimated
  • M = Missing
  • NA = Not Available
  • ‡ = Partner data that is not subject to review by the National Climate Archives
Date modified: